Home   Weather   Siberia   Past weeks
Flag for Russia

Past Weather in Siberia, Russia — Yesterday and Last 2 Weeks

Now
45 °F

Clear.


Feels Like: 43 °F
Forecast: 43 / 35 °F
Wind: 3 mph from South

Location: Bratsk / Irkutsk

Current Time: Oct 17, 2019 at 7:59:51 pm

Latest Report: Oct 17, 2019 at 7:30 pm


Visibility: N/A

Pressure: 29.65 "Hg

Humidity: 71%

Dew Point: 36 °F

Location of SiberiaLocation

Past Weather in Siberia — Graph

°F

Siberia Temperature Yesterday

Maximum temperature yesterday: 55 °F (at 2:00 pm)
Minimum temperature yesterday: 34 °F (at 6:00 am)
Average temperature yesterday: 44 °F

High & Low Weather Summary for the Past Weeks

 TemperatureHumidityPressure
High55 °F (Oct 4, 2:30 pm)100% (Oct 5, 10:00 pm)30.57 "Hg (Oct 5, 10:00 pm)
Low10 °F (Oct 12, 6:30 am)30% (Oct 4, 3:30 pm)29.65 "Hg (Oct 17, 2:30 pm)
Average35 °F68%30.18 "Hg
* Reported Oct 2 6:00 pm — Oct 17 6:30 pm, Siberia. Weather by CustomWeather, © 2019

Note: Actual official high and low records may vary slightly from our data, if they occured in-between our weather recording intervals... More about our weather records

Advertising

Siberia Weather History for the Previous 24 Hours

Scroll right to see more
 ConditionsComfort  
Time TempWeatherWind HumidityBarometerVisibility
6:30 pm
Thu, Oct 17
45 °FClear.3 mph71%29.65 "HgN/A
6:00 pm45 °FClear.6 mph71%29.65 "HgN/A
5:30 pm45 °FClear.3 mph71%29.65 "HgN/A
5:00 pm45 °FClear.3 mph71%29.65 "HgN/A
4:30 pm45 °FClear.6 mph71%29.65 "HgN/A
4:00 pm46 °FClear.3 mph66%29.65 "HgN/A
3:30 pm46 °FClear.8 mph66%29.65 "HgN/A
3:00 pm46 °FClear.6 mph66%29.65 "HgN/A
2:30 pm46 °FClear.8 mph66%29.65 "HgN/A
2:00 pm46 °FClear.6 mph66%29.68 "HgN/A
1:30 pm46 °FClear.8 mph66%29.68 "HgN/A
1:00 pm46 °FClear.10 mph66%29.68 "HgN/A
12:30 pm46 °FClear.8 mph66%29.68 "HgN/A
12:00 pm46 °FClear.6 mph66%29.68 "HgN/A
11:30 am45 °FClear.3 mph71%29.68 "HgN/A
11:00 am43 °FClear.6 mph76%29.71 "HgN/A
10:30 am41 °FClear.6 mph81%29.71 "HgN/A
10:00 am41 °FClear.6 mph81%29.71 "HgN/A
9:30 am41 °FClear.6 mph81%29.74 "HgN/A
9:00 am41 °FClear.6 mph87%29.74 "HgN/A
8:30 am39 °FClear.6 mph87%29.77 "HgN/A
8:00 am36 °FClear.6 mph100%29.77 "HgN/A
7:30 am34 °FClear.6 mph100%29.77 "Hg6 mi
7:00 am32 °FClear.6 mph100%29.77 "Hg6 mi
6:30 am32 °FClear.3 mph100%29.80 "Hg6 mi
6:00 am32 °FClear.3 mph100%29.80 "HgN/A
5:30 am32 °FClear.3 mph100%29.83 "HgN/A
5:00 am34 °FClear.3 mph93%29.83 "HgN/A
4:30 am32 °FClear.3 mph100%29.83 "HgN/A
4:00 am34 °FClear.1 mph100%29.83 "HgN/A
3:30 am36 °FClear.1 mph93%29.83 "HgN/A
3:00 am37 °FClear.1 mph87%29.83 "HgN/A
2:30 am36 °FClear.No wind87%29.86 "HgN/A
2:00 am36 °FClear.No wind87%29.86 "HgN/A
1:30 am37 °FClear.No wind87%29.86 "HgN/A
1:00 am39 °FClear.No wind81%29.86 "HgN/A
12:30 am41 °FClear.No wind76%29.89 "HgN/A
12:00 am39 °FClear.1 mph81%29.89 "HgN/A
11:30 pm
Wed, Oct 16
41 °FClear.3 mph76%29.89 "HgN/A
11:00 pm43 °FClear.3 mph71%29.89 "HgN/A
10:30 pm41 °FClear.6 mph70%29.92 "HgN/A
10:00 pm41 °FClear.8 mph70%29.92 "HgN/A
9:30 pm41 °FClear.8 mph66%29.92 "HgN/A
9:00 pm41 °FClear.8 mph66%29.92 "HgN/A
8:30 pm41 °FClear.8 mph66%29.89 "HgN/A
8:00 pm41 °FClear.3 mph66%29.89 "HgN/A
7:30 pm39 °FClear.3 mph70%29.92 "HgN/A
7:00 pm41 °FClear.1 mph66%29.92 "HgN/A
Weather by CustomWeather, © 2019

See weather overview